Regional Weather Roundup
Issued by NWS Mt. Holly, NJ

Home | Current Version | Previous Version | Text Only | Print | Product List | Glossary On
Versions: 1 2 3 4 5 6 7 8 9 10 11 12 13 14 15 16 17 18 19 20 21 22 23 24 25 26 27 28 29 30 31 32 33 34 35 36 37 38 39 40 41 42 43 44 45 46 47 48 49 50
000
ASUS41 KPHI 231110
RWRPHI

REGIONAL WEATHER ROUNDUP
NATIONAL WEATHER SERVICE MOUNT HOLLY NJ
700 AM EDT TUE SEP 23 2014

NOTE:  "FAIR" INDICATES FEW OR NO CLOUDS BELOW 12,000 FEET WITH NO
SIGNIFICANT WEATHER AND/OR OBSTRUCTIONS TO VISIBILITY.

 * = STATION DOES NOT REPORT PRECIPITATION (E.G. RAIN, SNOW, ETC.)
        OR FOG.

NJZ015>026-231200-
SOUTHERN NEW JERSEY

CITY           SKY/WX    TMP DP  RH WIND       PRES   REMARKS
POMONA         PTCLDY    42  40  92 NW5       30.28R
RIO GRANDE*    PTCLDY    48  39  71 CALM      30.29R
MILLVILLE      PTCLDY    40  38  93 CALM      30.29R
WRIGHTSTOWN    CLEAR     45  40  82 N3        30.26R
MOUNT HOLLY    CLEAR     44  40  85 CALM      30.29R
TRENTON        CLEAR     45  40  82 NW5       30.28R

$$
NJZ001>014-231200-
NORTHERN NEW JERSEY

CITY           SKY/WX    TMP DP  RH WIND       PRES   REMARKS
SUSSEX         CLEAR     42  38  85 W5        30.28R
ANDOVER*         N/A     40  38  93 CALM      30.29R
MORRISTOWN     CLEAR     39  39 100 CALM      30.28R
NEWARK         PTCLDY    52  40  63 CALM      30.28R
TETERBORO      CLEAR     47  40  76 CALM      30.28R
CALDWELL       CLEAR     43  38  82 CALM      30.29R
SOMERVILLE     CLEAR     38  37  97 CALM      30.28R
ALLAIRE*       CLEAR     45  37  76 NW5       30.28R
TOMS RIVER*    CLEAR     37  36  93 CALM      30.28S

$$
PAZ043-044-047-054-055-060>062-066>071-231200-
EASTERN PENNSYLVANIA

CITY           SKY/WX    TMP DP  RH WIND       PRES   REMARKS
PHILADELPHIA   PTCLDY    51  41  68 NW5       30.30R
NORTH PHILA    CLEAR     49  39  68 W3        30.31R
BLUE BELL      CLEAR     41  39  93 CALM      30.28R
DOYLESTOWN     CLEAR     43  39  86 N3        30.28R
QUAKERTOWN*    CLEAR     46  39  76 N6        30.30R
POTTSTOWN      CLEAR     42  39  89 NW6       30.31R
LANCASTER      CLEAR     44  40  85 W5        30.30R
COATESVILLE    CLEAR     46  41  81 NW7       30.29R
READING        CLEAR     46  40  79 CALM      30.29R
ALLENTOWN      CLEAR     42  38  85 CALM      30.29R
MOUNT POCONO   CLEAR     42  38  85 NW5       30.27R
HAZLETON       CLEAR     43  39  87 W3        30.31R
WILKES BARRE   CLEAR     42  39  89 E6        30.30R

$$
DEZALL-MDZ008-012-015-019-020-231200-
DELAWARE AND EASTERN MARYLAND

CITY           SKY/WX    TMP DP  RH WIND       PRES   REMARKS
WILMINGTON     CLEAR     44  41  89 NW6       30.30R
DOVER          CLEAR     45  41  86 NW5       30.27R
GEORGETOWN     CLEAR     50  42  74 CALM      30.29R
EASTON         CLEAR     48  48 100 CALM      30.33R
PATUXENT       MOCLDY    58  43  57 NE13      30.29R
OCEAN CITY     PTCLDY    50  44  80 NW6       30.27R
WALLOPS ISLAND MOCLDY    53  45  74 N8        30.27S
CAMBRIDGE      CLEAR     52  43  71 CALM      30.29R
SALISBURY      PTCLDY    49  43  80 NW3       30.28R

$$
PAZ001-021-NYZ056-072-MDZ011-DCZ001-231200-
OTHER NEARBY LOCATIONS

CITY           SKY/WX    TMP DP  RH WIND       PRES   REMARKS
HARRISBURG     CLEAR     49  43  80 N5        30.31R
STATE COLLEGE  CLEAR     41  39  93 CALM      30.31R
WILLIAMSPORT   CLOUDY    42  39  89 CALM      30.32R
BINGHAMTON     CLEAR     41  38  89 W5        30.27R
NEW YORK CITY  CLEAR     53  39  59 N6        30.31R
BALTIMORE      PTCLDY    47  42  83 NW3       30.31R
WASHINGTON DC  PTCLDY    54  42  64 N8        30.32R

$$



USA.gov is the U.S. government's official web portal to all federal, state and local government web resources and services.